Regional Weather Roundup
Issued by NWS Upton, NY

Current Version | Previous Version | Graphics & Text | Print | Product List | Glossary Off
Versions: 1 2 3 4 5 6 7 8 9 10 11 12 13 14 15 16 17 18 19 20 21 22 23 24 25 26 27 28 29 30 31 32 33 34 35 36 37 38 39 40 41 42 43 44 45 46 47 48 49 50

929
ASUS41 KOKX 230809
RWROKX

REGIONAL WEATHER ROUNDUP
NATIONAL WEATHER SERVICE NEW YORK NY
400 AM EDT TUE MAY 23 2017

NOTE: "FAIR" INDICATES FEW OR NO CLOUDS BELOW 12,000 FEET WITH NO
SIGNIFICANT WEATHER AND/OR OBSTRUCTIONS TO VISIBILITY.

NYZ071-072-176-178-NJZ106-104-230900-
NEW YORK CITY METRO AREA

CITY           SKY/WX    TMP DP  RH WIND       PRES   REMARKS
Central Park   CLOUDY    58  56  93 CALM      29.96R
Wall St Helipt CLOUDY    60  56  86 NE3       29.94R
Bronx Bot Gard   N/A     57  55  94 E2        29.95S
LaGuardia APRT CLOUDY    60  56  86 N5        29.93R
Kennedy INTL   CLOUDY    60  59  96 N6        29.94R
Breezy Point     N/A     59 N/A N/A N6          N/A
Newark/Liberty CLOUDY    58  57  97 N6        29.93S
Teterboro      CLOUDY    58  57  97 CALM      29.92S
$$

NYZ177-179-078>081-230900-
LONG ISLAND NEW YORK

CITY           SKY/WX    TMP DP  RH WIND       PRES   REMARKS
Jones Beach      N/A     57 N/A N/A N5          N/A
Matinecock PT  NOT AVBL
Farmingdale    CLOUDY    59  56  89 N7        29.93S VSB 1/4
MacArthur/ISP  CLOUDY    57  57 100 N9        29.93R
Shirley        CLOUDY    56  56 100 N10       29.94R
Mt Sinai Harb    N/A     55 N/A N/A N6          N/A
Westhampton    CLOUDY    56  54  93 N9        29.94S
East Hampton   CLOUDY    55  54  97 NW8       29.92S
Montauk          N/A     55  55 100 NW7       29.93R
$$

NYZ052-065-067-230900-
HUDSON VALLEY

CITY           SKY/WX    TMP DP  RH WIND       PRES   REMARKS
White Plains   CLOUDY    58  55  90 N8        29.93R
Larchmont Harb   N/A     57 N/A N/A N2          N/A
Croton O-T Hud   N/A     57 N/A N/A N5          N/A
Newburgh       MOCLDY    55  55 100 CALM      29.97S
Montgomery     CLOUDY    55  53  93 NE3       29.94F
Poughkeepsie   CLOUDY    55  53  93 CALM      29.95R
Albany         PTCLDY    49  46  90 CALM      29.97F
$$

NJZ001-105-106-008-010-013-015-019>022-104-230900-
NEW JERSEY

CITY           SKY/WX    TMP DP  RH WIND       PRES   REMARKS
Newark/Liberty CLOUDY    58  57  97 N6        29.93S
Teterboro      CLOUDY    58  57  97 CALM      29.92S
Caldwell       CLOUDY    59  56  89 CALM      29.94S
Somerville     FOG       54  54 100 CALM      29.92R VSB 1/4
Linden         PTSUNNY   58  56  93 CALM      29.93S FOG
Perth Amboy      N/A     59 N/A N/A N1          N/A
Sussex         CLOUDY    55  55 100 N5        29.96S
Andover          N/A     54  53  97 CALM      29.95F
Trenton        PTCLDY    57  57 100 CALM      29.93S FOG
Millville      CLOUDY    59  59 100 N3        29.92S FOG
Atlantic City  PTCLDY    62  58  86 N8        29.91F
Wrightstown    MOCLDY    63  55  77 VRB1      29.91F
Toms River     CLOUDY    60  59  96 N6        29.93F
Belmar         CLOUDY    59  57  93 N7        29.93F
$$

PAZ047>061-062-071-230900-
EASTERN PENNSYLVANIA

CITY           SKY/WX    TMP DP  RH WIND       PRES   REMARKS
Philadelphia   CLOUDY    61  58  90 N3        29.93S
Allentown      CLOUDY    53  51  93 NW3       29.94S FOG
Scranton       CLOUDY    56  44  64 NE6       29.98F
$$

CTZ002-004>006-009-010-012-RIZ004-006-007-MAZ004-011-015-230900-
SOUTHERN NEW ENGLAND
 IN CT

CITY           SKY/WX    TMP DP  RH WIND       PRES   REMARKS
Bradley INTL   FOG       51  51 100 CALM      29.94F VSB 1/4
Hartford       CLOUDY    53  52  96 CALM      29.94F
Danbury        CLOUDY    54  53  97 N6        29.95S
Wtrbury/Oxford   N/A     52  46  82 N8        29.95F
Bridgeport     PTCLDY    58  55  90 N3        29.93F
Meriden        CLOUDY    51  51 100 CALM      29.93F FOG
New Haven      CLOUDY    54  53  97 N5        29.93S
Chester        CLOUDY    54  54 100 N9G18     29.92F
Groton         CLOUDY    56  54  93 N8        29.91S
Wilimantic     CLOUDY    56  53  90 CALM      29.93F

 IN RI

CITY           SKY/WX    TMP DP  RH WIND       PRES   REMARKS
Providence     CLOUDY    55  55 100 N9        29.92R
Block Island   CLOUDY    55  55 100 NW6       29.92R FOG
Westerly       CLOUDY    58  57  97 N5        29.92S
 IN MA

CITY           SKY/WX    TMP DP  RH WIND       PRES   REMARKS
Boston         CLOUDY    53  52  96 NW5       29.93S
Worcester      PTCLDY    50  49  96 NW6       29.93F
Westfield      FOG       50  50 100 NW3       29.94S VSB 1/4
Provincetown   CLOUDY    56  55  97 W5        29.91R FOG
Nantucket      LGT RAIN  55  54  96 S15       29.90F FOG
$$

ANZ330-335-338-340-345-350-353-355-230900-
COASTAL MARINE OBSERVATIONS


STATION/POSITION TIME  SKY/WX   TEMP    WIND        PRES    VSBY  WAVE
                                AIR SEA DIR/SP/G                  HT/PER
                 (UTC)          (F)     (DEG/KT/KT) (MB)    (MI)  (FT/S)
NY HARB ENTRANCE 0650            59 56  320/  6/  8 1013.5          2/ 6
20 S FIRE ISLAND 0750            56 55  350/ 12/ 14 1012.4          3/ 5
GREAT SOUTH BAY  0715            59 64  360/  6/ 12   N/A
23 SSW MONTAUK P 0650            55 54              1013.2          3/ 5
15 E BARNEGAT LI 0730               57                N/A           3/ 5
HUDSON CANYON    0650            57 54  310/  4/  6 1012.8          3/ 5
KINGS POINT      0742            58 57   80/  2/  3 1013.4
EXECUTION ROCKS  0745            59                   N/A
CENTRAL LI SOUND 0730            56     330/ 12/ 16   N/A           1
EASTERN LI SOUND NOT AVBL
ROBBINS REEF     0742            60     350/  2/  4 1014.0
$$


>>>>>>>>>>>>>>>>>>>>>>>>>>>> KEY <<<<<<<<<<<<<<<<<<<<<<<<<<<
>                                                          <
>     SKY/WX - Sky Condition/Present Weather               <
>     TMP    - Temperature in Fahrenheit                   <
>     DP     - Dew Point in Fahrenheit                     <
>     RH     - Relative Humidity in Percent                <
>     WIND   - Direction (from) and Speed in MPH           <
>     PRES   - Mean Sea Level Pressure (inches of Hg)      <
>     WCI    - Wind Chill Index                            <
>     VSB    - VISIBILITY IN MILES                         <
>     HX     - HEAT INDEX                                  <
>     TC     - TEMPERATURE IN CELSIUS                      <
>     VRB    - VARIABLE WIND DIRECTION                     <
>                                                          <
>>>>>>>>>>>>>>>>>>>>>>>>>>>> KEY <<<<<<<<<<<<<<<<<<<<<<<<<<<




USA.gov is the U.S. government's official web portal to all federal, state and local government web resources and services.